• In Deutschland
  • Länderverzeichnis
  • Für 7 Tage
  • Wassertemperatur
  • Satellitenkarten
  • Wetterkarte
  • Widgets
  • user-avatar
    Anmelden

    Stündliche Wetter Korçe

    Heute, 20 September, Mittwoch

    Zeit Temperatur Niederschläge Wind Luftdruck Luftfeuchtigkeit
    00:00 +14°C° 0 mm 1 m/S 664 mmHg 76%
    01:00 +13°C° 0 mm 1 m/S 663 mmHg 75%
    02:00 +13°C° 0 mm 1 m/S 663 mmHg 78%
    03:00 +13°C° 0 mm 1 m/S 663 mmHg 81%
    04:00 +12°C° 0 mm 1 m/S 663 mmHg 84%
    05:00 +13°C° 0,2 mm 1 m/S 663 mmHg 82%
    06:00 +14°C° 0,2 mm 1 m/S 663 mmHg 80%
    07:00 +15°C° 0 mm 2 m/S 664 mmHg 77%
    08:00 +16°C° 0,2 mm 2 m/S 664 mmHg 69%
    09:00 +17°C° 0,2 mm 2 m/S 664 mmHg 62%
    10:00 +18°C° 0,2 mm 3 m/S 665 mmHg 54%
    11:00 +18°C° 0,1 mm 3 m/S 665 mmHg 50%
    12:00 +19°C° 0,1 mm 4 m/S 665 mmHg 46%
    13:00 +19°C° 0 mm 4 m/S 665 mmHg 47%
    14:00 +18°C° 0,1 mm 4 m/S 665 mmHg 47%
    15:00 +18°C° 0,1 mm 4 m/S 665 mmHg 47%
    16:00 +17°C° 0,1 mm 4 m/S 665 mmHg 47%
    17:00 +14°C° 0,3 mm 3 m/S 664 mmHg 57%
    18:00 +12°C° 0,3 mm 3 m/S 664 mmHg 66%
    19:00 +10°C° 0,3 mm 2 m/S 664 mmHg 76%
    20:00 +10°C° 0,1 mm 2 m/S 664 mmHg 79%
    21:00 +9°C° 0,1 mm 2 m/S 664 mmHg 82%
    22:00 +10°C° 0,1 mm 1 m/S 664 mmHg 85%
    23:00 +10°C° 0 mm 1 m/S 664 mmHg 86%

    Morgen, 21 September, Donnerstag

    Zeit Temperatur Niederschläge Wind Luftdruck Luftfeuchtigkeit
    00:00 +8°C° 0 mm 2 m/S 664 mmHg 88%
    01:00 +8°C° 0 mm 2 m/S 664 mmHg 90%
    02:00 +8°C° 0,1 mm 2 m/S 665 mmHg 90%
    03:00 +8°C° 0,1 mm 2 m/S 665 mmHg 90%
    04:00 +8°C° 0,1 mm 2 m/S 665 mmHg 90%
    05:00 +9°C° 0,1 mm 2 m/S 665 mmHg 87%
    06:00 +9°C° 0,1 mm 2 m/S 665 mmHg 83%
    07:00 +10°C° 0,1 mm 2 m/S 665 mmHg 80%
    08:00 +12°C° 0,2 mm 2 m/S 666 mmHg 74%
    09:00 +12°C° 0,2 mm 3 m/S 666 mmHg 68%
    10:00 +13°C° 0,2 mm 3 m/S 666 mmHg 62%
    11:00 +13°C° 0,2 mm 3 m/S 666 mmHg 60%
    12:00 +14°C° 0,2 mm 4 m/S 666 mmHg 57%
    13:00 +14°C° 0,2 mm 4 m/S 667 mmHg 55%
    14:00 +14°C° 0,1 mm 4 m/S 666 mmHg 56%
    15:00 +13°C° 0,1 mm 4 m/S 666 mmHg 57%
    16:00 +13°C° 0,1 mm 4 m/S 666 mmHg 58%
    17:00 +11°C° 0 mm 3 m/S 666 mmHg 66%
    18:00 +10°C° 0 mm 3 m/S 666 mmHg 74%
    19:00 +8°C° 0 mm 2 m/S 666 mmHg 82%
    20:00 +8°C° 0 mm 2 m/S 666 mmHg 84%
    21:00 +8°C° 0 mm 1 m/S 667 mmHg 87%
    22:00 +8°C° 0 mm 1 m/S 667 mmHg 89%
    23:00 +8°C° 0 mm 1 m/S 667 mmHg 89%

    übermorgen, 22 September, Freitag

    Zeit Temperatur Niederschläge Wind Luftdruck Luftfeuchtigkeit
    00:00 +7°C° 0 mm 1 m/S 667 mmHg 88%
    01:00 +7°C° 0 mm 1 m/S 667 mmHg 88%
    02:00 +7°C° 0 mm 1 m/S 667 mmHg 88%
    03:00 +7°C° 0 mm 1 m/S 667 mmHg 87%
    04:00 +7°C° 0 mm 1 m/S 667 mmHg 87%
    05:00 +8°C° 0 mm 1 m/S 667 mmHg 83%
    06:00 +9°C° 0 mm 1 m/S 668 mmHg 79%
    07:00 +10°C° 0 mm 1 m/S 668 mmHg 75%
    08:00 +12°C° 0 mm 2 m/S 669 mmHg 63%
    09:00 +12°C° 0 mm 3 m/S 669 mmHg 51%
    10:00 +14°C° 0 mm 3 m/S 670 mmHg 40%
    11:00 +15°C° 0 mm 4 m/S 670 mmHg 38%
    12:00 +15°C° 0 mm 4 m/S 670 mmHg 37%
    13:00 +16°C° 0 mm 5 m/S 670 mmHg 36%
    14:00 +17°C° 0 mm 4 m/S 670 mmHg 38%
    15:00 +15°C° 0 mm 4 m/S 670 mmHg 41%
    16:00 +14°C° 0 mm 4 m/S 669 mmHg 43%
    17:00 +12°C° 0 mm 3 m/S 669 mmHg 50%
    18:00 +11°C° 0 mm 3 m/S 669 mmHg 58%
    19:00 +9°C° 0 mm 2 m/S 669 mmHg 65%
    20:00 +9°C° 0 mm 1 m/S 669 mmHg 68%
    21:00 +9°C° 0 mm 1 m/S 669 mmHg 70%
    22:00 +8°C° 0 mm 1 m/S 669 mmHg 73%
    23:00 +8°C° 0 mm 1 m/S 669 mmHg 73%

    23 September, Samstag

    Zeit Temperatur Niederschläge Wind Luftdruck Luftfeuchtigkeit
    00:00 +8°C° 0 mm 1 m/S 669 mmHg 73%
    01:00 +8°C° 0 mm 1 m/S 669 mmHg 74%
    02:00 +7°C° 0 mm 1 m/S 669 mmHg 74%
    03:00 +7°C° 0 mm 1 m/S 669 mmHg 74%
    04:00 +7°C° 0 mm 1 m/S 669 mmHg 74%
    05:00 +8°C° 0 mm 1 m/S 669 mmHg 70%
    06:00 +10°C° 0 mm 1 m/S 670 mmHg 65%
    07:00 +11°C° 0 mm 1 m/S 670 mmHg 61%
    08:00 +13°C° 0 mm 1 m/S 671 mmHg 53%
    09:00 +15°C° 0 mm 1 m/S 671 mmHg 45%
    10:00 +19°C° 0 mm 1 m/S 672 mmHg 37%
    11:00 +19°C° 0 mm 1 m/S 672 mmHg 35%
    12:00 +19°C° 0 mm 2 m/S 671 mmHg 33%
    13:00 +20°C° 0 mm 2 m/S 671 mmHg 31%
    14:00 +19°C° 0 mm 2 m/S 671 mmHg 33%
    15:00 +19°C° 0 mm 2 m/S 671 mmHg 35%
    16:00 +18°C° 0 mm 3 m/S 670 mmHg 38%
    17:00 +16°C° 0 mm 2 m/S 670 mmHg 45%
    18:00 +14°C° 0 mm 2 m/S 670 mmHg 52%
    19:00 +12°C° 0 mm 1 m/S 669 mmHg 59%
    20:00 +11°C° 0 mm 1 m/S 669 mmHg 61%
    21:00 +11°C° 0 mm 1 m/S 669 mmHg 62%
    22:00 +11°C° 0 mm 1 m/S 669 mmHg 63%
    23:00 +10°C° 0 mm 1 m/S 669 mmHg 64%

    24 September, Sonntag

    Zeit Temperatur Niederschläge Wind Luftdruck Luftfeuchtigkeit
    00:00 +10°C° 0 mm 1 m/S 669 mmHg 64%
    01:00 +10°C° 0 mm 1 m/S 669 mmHg 64%
    02:00 +10°C° 0 mm 1 m/S 668 mmHg 64%
    03:00 +10°C° 0 mm 1 m/S 668 mmHg 64%
    04:00 +9°C° 0 mm 1 m/S 668 mmHg 64%
    05:00 +10°C° 0 mm 1 m/S 668 mmHg 61%
    06:00 +11°C° 0 mm 1 m/S 669 mmHg 58%
    07:00 +12°C° 0 mm 1 m/S 669 mmHg 55%
    08:00 +14°C° 0 mm 1 m/S 670 mmHg 49%
    09:00 +16°C° 0 mm 1 m/S 670 mmHg 43%
    10:00 +19°C° 0 mm 1 m/S 670 mmHg 38%
    11:00 +20°C° 0 mm 1 m/S 670 mmHg 36%
    12:00 +20°C° 0 mm 1 m/S 670 mmHg 34%
    13:00 +21°C° 0 mm 1 m/S 670 mmHg 33%
    14:00 +20°C° 0 mm 2 m/S 670 mmHg 35%
    15:00 +19°C° 0 mm 2 m/S 669 mmHg 37%
    16:00 +18°C° 0 mm 2 m/S 669 mmHg 39%
    17:00 +17°C° 0 mm 2 m/S 669 mmHg 46%
    18:00 +15°C° 0 mm 1 m/S 669 mmHg 53%
    19:00 +13°C° 0 mm 1 m/S 668 mmHg 60%
    20:00 +12°C° 0 mm 1 m/S 668 mmHg 63%
    21:00 +12°C° 0 mm 1 m/S 668 mmHg 65%
    22:00 +11°C° 0 mm 1 m/S 668 mmHg 68%
    23:00 +11°C° 0 mm 1 m/S 668 mmHg 68%

    25 September, Montag

    Zeit Temperatur Niederschläge Wind Luftdruck Luftfeuchtigkeit
    00:00 +11°C° 0 mm 1 m/S 667 mmHg 68%
    01:00 +10°C° 0 mm 1 m/S 667 mmHg 69%
    02:00 +10°C° 0 mm 1 m/S 667 mmHg 69%
    03:00 +10°C° 0 mm 1 m/S 667 mmHg 69%
    04:00 +10°C° 0 mm 1 m/S 667 mmHg 69%
    05:00 +11°C° 0 mm 1 m/S 667 mmHg 66%
    06:00 +12°C° 0 mm 1 m/S 667 mmHg 63%
    07:00 +13°C° 0 mm 1 m/S 668 mmHg 60%
    08:00 +14°C° 0 mm 1 m/S 668 mmHg 54%
    09:00 +16°C° 0 mm 1 m/S 669 mmHg 49%
    10:00 +19°C° 0 mm 1 m/S 669 mmHg 43%
    11:00 +18°C° 0,4 mm 2 m/S 669 mmHg 42%
    12:00 +19°C° 0,4 mm 2 m/S 669 mmHg 42%
    13:00 +19°C° 0,4 mm 2 m/S 669 mmHg 42%
    14:00 +18°C° 0,8 mm 2 m/S 668 mmHg 46%
    15:00 +18°C° 0,8 mm 2 m/S 668 mmHg 50%
    16:00 +17°C° 0,8 mm 2 m/S 668 mmHg 54%
    17:00 +16°C° 0,5 mm 2 m/S 668 mmHg 60%
    18:00 +14°C° 0,5 mm 1 m/S 668 mmHg 67%
    19:00 +13°C° 0,5 mm 1 m/S 668 mmHg 74%
    20:00 +13°C° 0,3 mm 1 m/S 667 mmHg 75%
    21:00 +12°C° 0,3 mm 1 m/S 667 mmHg 76%
    22:00 +12°C° 0,3 mm 1 m/S 667 mmHg 78%
    23:00 +11°C° 0 mm 1 m/S 667 mmHg 78%
    Mehr zeigen